STARLINK-32866, 62858

Orbit data source: Space-Track

STARLINK-32866, 62858 is a payload satellite owned by SpaceX/Seattle (US) in LEO that was launched on Sat, 01 Feb 2025 UTC via an FALCON 9 launch vehicle from the Air Force Western Test Range (AFWTR). Payload-class satellites include a variety of spacecraft equipped with specific instruments for various scientific and technological missions. These include communications satellites like Starlink; space stations such as the ISS; scientific satellites like the Hubble; Earth observation satellites from companies like Planet Labs, Umbra, and HawkEye 360; GPS; miniature CubeSats for education and research; and military/defense satellites.

Loading next visibility...
Identifier
62858, 2025-022E
Orbit
LEO
Last TLE update
6 hours ago
Origin
Manufacturer
SpaceX/Seattle
Mission
Operational Commercial Communications
Bus & Motor
STARLINK V2M, Unknown motor
Mass
730 kg wet, ~700 kg dry
Launch date (UTC)
2025-02-01 (5 months ago)
Launch vehicle
FALCON 9
Launch site
Air Force Western Test Range (AFWTR)
Object type
Payload
Rocket body
Debris
Shape & HBR
Box + 2 Pan, 29 m
Radar Cross Section
33.884 m², Large (>1 m²)

Expand to show TLE details & history

TLE from 6 hours ago
0 STARLINK-32866
1 62858U 25022E   25182.14535528  .00015420  00000-0  39460-3 0  9998
2 62858  53.1568 218.2917 0001163  95.8802 264.2336 15.39628589 24291
Epoch: 2025-07-01T03:29Z
TLE epoch observation values (Epoch: 2025-07-01T03:29:18.696Z)
Latitude
0.00004°
Longitude
-113.48118°
Altitude
448.19 km
Speed
7.645 km/s
True Right ascension
14h 33m 10s
True Declination
0° 00' 00"
Sunlit
Object was in full shadow at epoch
Visualization orbit readout
Latitude
-47.30658°
Longitude
119.26039°
Altitude
464.034 km
Speed
7.634 km/s
Apparent Right ascension
07h 30m 20s
Apparent Declination
-45° 31' 06"
Sunlit
Object is in daylight
Visualization observer readout
Local Sidereal Time
20:51:54
Azimuth
117.259° SE
Elevation
-74.057°
Doppler factor
1
Orbital elements
Apogee altitude
448.259 km
Perigee altitude
446.671 km
Semi-major axis
6,825.602 km
Eccentricity
0.00012
Inclination
53.1568°
RAAN
218.2917°
Arg. of periapsis
95.8802°
True anomaly
Unknown
Mean anomaly
264.2336°
Eccentric anomaly
Unknown
Mean motion
3.84886 °/min
Orbital period
93.53 mins
BSTAR
0.0003946
Loading maneuver chart data...
Loading SW <> Apogee altitude chart data...
Loading historical data...
Loading historical data...
Loading historical data...
Loading historical data...
Loading historical data...
Loading historical data...
Loading historical data...

STARLINK-32866 Visibility forecast

Observer location: undefined°, undefined°

Span
Click to sort rows by Start time (UTC) header in descending order
Start Az.
Max El. time (UTC)
Max El. Az.
Max El.
End time (UTC)
End Az.
5 mins2025-07-01 11:46:39.787Z327.116° NNW2025-07-01 11:48:39.787Z39.758° NE38.454°2025-07-01 11:51:39.787Z113.006° SE
5 mins2025-07-02 04:35:39.787Z198.193° SSW2025-07-02 04:37:39.787Z133.98° SE35.121°2025-07-02 04:40:39.787Z63.161° ENE
4 mins2025-07-02 06:13:39.787Z296.052° NW2025-07-02 06:14:39.787Z320.268° NNW22.061°2025-07-02 06:17:39.787Z25.613° NE
|